Terminal Aerodrome Forecast
Issued by NWS Pittsburgh, PA

Current Version | Previous Version | Graphics & Text | Print | Product List | Glossary On
Versions: 1 2 3 4 5 6 7 8 9 10 11 12 13 14 15 16 17 18 19 20 21 22 23 24 25 26 27 28 29 30 31 32 33
000
FTUS41 KPBZ 061256 AAA
TAFPIT
TAF AMD
KPIT 061256Z 0613/0718 VRB05KT 4SM BR SCT080
     FM061400 VRB03KT P6SM BKN080
     FM070700 VRB03KT 2SM BR SKC
     FM071000 11003KT 1SM BR BKN005=

USA.gov is the U.S. government's official web portal to all federal, state and local government web resources and services.